Regional Weather Roundup
Issued by NWS Newport/Morehead, NC

Current Version | Previous Version | Graphics & Text | Print | Product List | Glossary On
Versions: 1 2 3 4 5 6 7 8 9 10 11 12 13 14 15 16 17 18 19 20 21 22 23 24 25 26 27 28 29 30 31 32 33 34 35 36 37 38 39 40 41 42 43 44 45 46 47 48 49 50
000
ASUS42 KMHX 191412
RWRMHX
WEATHER ROUNDUP FOR EASTERN NORTH CAROLINA
NATIONAL WEATHER SERVICE NEWPORT/MOREHEAD CITY NC
1000 AM EDT SUN APR 19 2015

NOTE: "FAIR" INDICATES FEW OR NO CLOUDS BELOW 12,000 FEET
WITH NO SIGNIFICANT WEATHER AND/OR OBSTRUCTIONS TO VISIBILITY

NCZ015>017-031-032-045>047-102-103-191500-
NORTH COAST

CITY           SKY/WX    TMP DP  RH WIND       PRES   REMARKS
EDENTON        MOSUNNY   64  58  82 E6        30.08R
ELIZABETH CITY MOSUNNY   66  56  70 NE13      30.08S
KITTY HAWK     MOSUNNY   61  57  88 NE8       30.07R
MANTEO         MOSUNNY   64  59  81 E14G22    30.07S

$$

NCZ045>047-081-094-103-104-191500-
CENTRAL COAST

CITY           SKY/WX    TMP DP  RH WIND       PRES   REMARKS
FRISCO         CLOUDY    63  60  90 NE9G22    30.05R
SWANQUARTER      N/A     68 N/A N/A NE9       30.03R

$$

NCZ095-097-098-100-101-191500-
SOUTHERN COAST

CITY           SKY/WX    TMP DP  RH WIND       PRES   REMARKS
BEAUFORT       CLOUDY    72  64  76 MISG      30.03R
CEDAR ISLAND     N/A     70 N/A N/A E3G9      30.09R
JACKSONVILLE   CLOUDY    71  65  81 E8        30.01S
PINEY ISLAND   CLOUDY   N/A N/A N/A E12       30.03R
WILMINGTON     CLOUDY    72  63  73 E9        30.00S


$$

NCZ011>013-027>030-043-044-078>080-089-090>093-098-191500-
COASTAL PLAIN

CITY           SKY/WX    TMP DP  RH WIND       PRES   REMARKS
AHOSKIE        PTSUNNY   64  58  81 NE6       30.08S
CLINTON        CLOUDY    69  66  90 E5        30.01F
ELIZABETHTOWN  CLOUDY    68  67  97 E5        29.99F
GOLDSBORO      CLOUDY    69  65  86 E10       30.00F
GREENVILLE     CLOUDY    64  64 100 E5        30.06S
HAVELOCK       CLOUDY    73  64  73 E8        30.03S
KENANSVILLE    CLOUDY    69  65  86 E3        30.02F
KINSTON        CLOUDY    70  66  88 E7        30.04S FOG
NEW BERN       CLOUDY    72  65  78 E6        30.03S
RICHLANDS      CLOUDY    72  63  73 E9        30.02S
ROCKY MOUNT    CLOUDY    66  64  93 VRB6      30.04S
WASHINGTON     CLOUDY    65  63  94 E6        30.05S
WHITEVILLE     CLOUDY    70  65  85 E7        29.97F

$$

AMZ130-135-150-152-154-156-158-170-250-252-270-ANZ085-086-088-633-658-670-191500-
MARINE OBSERVATIONS

STATION/POSITION TIME  TEMP    WIND        PRES    WAVE   SWELL
                       AIR SEA DIR/SP/G            HT/PER HT/PER
                 (UTC) (F)     (DEG/KT/KT) (MB)    (FT/S) (FT/S)
CHESAPEAKE LIGHT 1400   54      70/ 13/ 13 1019.8
64 E VA BEACH    1350   62 57   60/ 12/ 14 1017.9    4/12   3/12
DUCK             1300   56 57   50/ 14/ 16 1017.4
2 E DUCK         1311      56                N/A     3/15   2/15
10 NE DUCK       NOT AVBL
OREGON INLET     1300   58 62   30/ 12/ 15 1017.8
HATTERAS CG      1312   68 67   50/  5/  9 1016.7
DIAMOND BUOY     1350   73 76   80/ 14/ 16 1016.8    4/13   3/13
CAPE LOOKOUT     1400   69      60/ 10/ 10 1016.5
BEAUFORT LAB     1300           80/  6/  8 1015.6
27 SE WRIGHTSVLE 1300   71 72  130/ 10/ 12   N/A
5 SE WRIGHTSVLE  NOT AVBL
225 S CAPE HAT   1350   72 75  110/  8/ 10 1016.3    5/13   5/13
41 SE CHARLESTON 1350   74 75   90/ 12/ 14 1013.4    3/ 8   3/ 8

$$



USA.gov is the U.S. government's official web portal to all federal, state and local government web resources and services.